Tracking 35237 objects as of 4-Sep-2026
HD Live streaming from Space Station
objects crossing your sky now

COSMOS 1553

Track COSMOS 1553 now!
10-day predictions
COSMOS 1553 is classified as:


NORAD ID: 14973
Int'l Code: 1984-046A
Launch date: May 17, 1984
Source: Commonwealth of Independent States (former USSR) (CIS)
Launch site: PLESETSK MISSILE AND SPACE COMPLEX (PKMTR)
Your satellite tracking list
Your tracking list is empty




NASA's NSSDC Master Catalog

Two Line Element Set (TLE):
1 14973U 84046A   26247.61830431  .00000054  00000-0  39950-4 0  9992
2 14973  82.9385 193.2265 0033419  52.8311 119.7413 13.75628231122648
Source of the keplerian elements: AFSPC